| time (UTC) | temp F | wind direction | speed MPH | gust MPH | rain 1hr in | rain 24hr in | rain mn in | humidity % | barometer mb |
| 20260831144623 | 73 | 280 | 12.0 | 19.0 | 0.00 | 0.05 | 0.05 | 34 | 1021.8 |
| 20260831143623 | 74 | 291 | 14.0 | 19.0 | 0.00 | 0.05 | 0.05 | 32 | 1021.8 |
| 20260831142622 | 75 | 299 | 12.0 | 20.0 | 0.00 | 0.05 | 0.05 | 32 | 1021.7 |
| 20260831140624 | 74 | 277 | 13.0 | 27.0 | 0.00 | 0.05 | 0.05 | 27 | 1021.6 |
| 20260831135624 | 74 | 279 | 11.0 | 21.0 | 0.00 | 0.05 | 0.05 | 31 | 1021.7 |
| 20260831134623 | 74 | 256 | 10.0 | 18.0 | 0.00 | 0.05 | 0.05 | 34 | 1021.7 |
| 20260831133624 | 74 | 257 | 11.0 | 21.0 | 0.00 | 0.05 | 0.05 | 34 | 1021.7 |
| 20260831132623 | 74 | 203 | 14.0 | 24.0 | 0.00 | 0.05 | 0.05 | 34 | 1021.6 |
| 20260831131623 | 75 | 261 | 10.0 | 17.0 | 0.00 | 0.05 | 0.05 | 38 | 1021.8 |
| 20260831125622 | 74 | 240 | 16.0 | 25.0 | 0.00 | 0.05 | 0.05 | 39 | 1021.7 |
| 20260831124624 | 73 | 257 | 17.0 | 29.0 | 0.00 | 0.05 | 0.05 | 41 | 1021.6 |
| 20260831123623 | 73 | 244 | 16.0 | 30.0 | 0.00 | 0.05 | 0.05 | 40 | 1021.7 |
| 20260831121624 | 72 | 269 | 17.0 | 27.0 | 0.00 | 0.05 | 0.05 | 39 | 1021.7 |
| 20260831120619 | 72 | 270 | 16.0 | 30.0 | 0.00 | 0.05 | 0.05 | 42 | 1021.6 |
| 20260831115619 | 72 | 244 | 14.0 | 23.0 | 0.00 | 0.05 | 0.05 | 43 | 1021.8 |
| 20260831114615 | 72 | 155 | 13.0 | 22.0 | 0.00 | 0.05 | 0.05 | 47 | 1021.8 |
| 20260831113615 | 71 | 263 | 17.0 | 27.0 | 0.00 | 0.05 | 0.05 | 46 | 1022.0 |
| 20260831112616 | 71 | 243 | 15.0 | 28.0 | 0.00 | 0.05 | 0.05 | 49 | 1021.8 |
| 20260831111615 | 71 | 241 | 15.0 | 26.0 | 0.00 | 0.05 | 0.05 | 50 | 1021.9 |
| 20260831110616 | 70 | 274 | 16.0 | 27.0 | 0.00 | 0.05 | 0.05 | 51 | 1022.0 |
| 20260831105615 | 70 | 290 | 16.0 | 23.0 | 0.00 | 0.05 | 0.05 | 53 | 1022.0 |
| 20260831104611 | 69 | 267 | 13.0 | 25.0 | 0.00 | 0.05 | 0.05 | 54 | 1021.9 |
| 20260831103612 | 70 | 269 | 12.0 | 20.0 | 0.00 | 0.05 | 0.05 | 54 | 1022.0 |
| 20260831102616 | 69 | 257 | 11.0 | 20.0 | 0.00 | 0.05 | 0.05 | 55 | 1022.0 |
| 20260831101611 | 69 | 273 | 9.0 | 18.0 | 0.00 | 0.05 | 0.05 | 54 | 1022.1 |
| 20260831100612 | 69 | 246 | 9.0 | 21.0 | 0.00 | 0.05 | 0.05 | 54 | 1022.1 |
| 20260831094610 | 68 | 261 | 10.0 | 23.0 | 0.00 | 0.05 | 0.05 | 54 | 1022.1 |
| 20260831093611 | 68 | 250 | 10.0 | 20.0 | 0.00 | 0.05 | 0.05 | 55 | 1022.1 |
| 20260831092608 | 68 | 253 | 7.0 | 14.0 | 0.00 | 0.05 | 0.05 | 56 | 1022.1 |
| 20260831091609 | 68 | 259 | 8.0 | 15.0 | 0.00 | 0.05 | 0.05 | 57 | 1022.0 |
| 20260831090609 | 68 | 217 | 8.0 | 14.0 | 0.00 | 0.05 | 0.05 | 55 | 1022.1 |
| 20260831085609 | 67 | 245 | 10.0 | 14.0 | 0.00 | 0.05 | 0.05 | 60 | 1022.1 |
| 20260831084608 | 66 | 269 | 9.0 | 16.0 | 0.00 | 0.05 | 0.05 | 57 | 1022.1 |
| 20260831083606 | 65 | 288 | 10.0 | 17.0 | 0.00 | 0.05 | 0.05 | 58 | 1022.0 |
| 20260831082607 | 65 | 221 | 8.0 | 16.0 | 0.00 | 0.05 | 0.05 | 58 | 1022.0 |
| 20260831080606 | 64 | 257 | 9.0 | 15.0 | 0.00 | 0.05 | 0.05 | 60 | 1022.0 |
| 20260831075607 | 63 | 267 | 9.0 | 17.0 | 0.00 | 0.05 | 0.05 | 59 | 1022.0 |
| 20260831074606 | 63 | 311 | 10.0 | 19.0 | 0.00 | 0.05 | 0.05 | 60 | 1021.8 |
| 20260831073608 | 63 | 269 | 6.0 | 13.0 | 0.00 | 0.05 | 0.05 | 62 | 1021.9 |
| 20260831072606 | 62 | 253 | 7.0 | 14.0 | 0.00 | 0.05 | 0.05 | 62 | 1021.8 |
| 20260831071606 | 62 | 260 | 7.0 | 14.0 | 0.00 | 0.05 | 0.05 | 62 | 1021.7 |
| 20260831070607 | 62 | 248 | 8.0 | 13.0 | 0.00 | 0.05 | 0.05 | 62 | 1021.6 |
| 20260831064608 | 62 | 246 | 6.0 | 12.0 | 0.00 | 0.05 | 0.05 | 63 | 1021.6 |
| 20260831063601 | 62 | 255 | 5.0 | 11.0 | 0.00 | 0.05 | 0.05 | 63 | 1021.6 |
| 20260831062601 | 62 | 261 | 7.0 | 12.0 | 0.00 | 0.05 | 0.05 | 63 | 1021.6 |
| 20260831061600 | 62 | 267 | 7.0 | 11.0 | 0.00 | 0.05 | 0.05 | 64 | 1021.4 |
| 20260831060601 | 62 | 254 | 7.0 | 11.0 | 0.00 | 0.05 | 0.05 | 64 | 1021.4 |
| 20260831055600 | 62 | 265 | 8.0 | 13.0 | 0.00 | 0.05 | 0.05 | 64 | 1021.3 |
| 20260831054601 | 62 | 262 | 8.0 | 13.0 | 0.00 | 0.05 | 0.05 | 64 | 1021.2 |
| 20260831053601 | 62 | 257 | 7.0 | 13.0 | 0.00 | 0.05 | 0.05 | 65 | 1021.2 |
| 20260831052602 | 62 | 279 | 7.0 | 10.0 | 0.00 | 0.05 | 0.05 | 65 | 1021.1 |
| 20260831051558 | 62 | 262 | 9.0 | 12.0 | 0.00 | 0.05 | 0.05 | 65 | 1021.0 |
| 20260831050558 | 62 | 271 | 8.0 | 13.0 | 0.01 | 0.05 | 0.05 | 66 | 1021.0 |
| 20260831045558 | 62 | 244 | 9.0 | 14.0 | 0.01 | 0.05 | 0.05 | 67 | 1021.0 |
| 20260831044558 | 62 | 253 | 4.0 | 10.0 | 0.01 | 0.05 | 0.05 | 69 | 1021.0 |
| 20260831043559 | 61 | 235 | 0.0 | 2.0 | 0.01 | 0.05 | 0.05 | 70 | 1021.0 |
| 20260831042559 | 61 | 235 | 1.0 | 3.0 | 0.01 | 0.05 | 0.05 | 70 | 1020.9 |
| 20260831040558 | 62 | 236 | 2.0 | 4.0 | 0.00 | 0.04 | 0.04 | 69 | 1020.9 |
| 20260831035556 | 62 | 242 | 3.0 | 7.0 | 0.00 | 0.04 | 0.04 | 69 | 1020.8 |
| 20260831034555 | 62 | 252 | 2.0 | 4.0 | 0.00 | 0.04 | 0.04 | 69 | 1020.7 |
| 20260831033556 | 62 | 239 | 1.0 | 3.0 | 0.00 | 0.04 | 0.04 | 68 | 1020.7 |
| 20260831032556 | 62 | 206 | 1.0 | 3.0 | 0.00 | 0.04 | 0.04 | 68 | 1020.8 |
| 20260831030557 | 62 | 206 | 1.0 | 2.0 | 0.00 | 0.04 | 0.04 | 68 | 1020.8 |
| 20260831025557 | 62 | 206 | 0.0 | 2.0 | 0.00 | 0.04 | 0.04 | 68 | 1020.7 |
| 20260831024557 | 63 | 206 | 1.0 | 2.0 | 0.00 | 0.04 | 0.04 | 67 | 1020.7 |
| 20260831023555 | 63 | 206 | 0.0 | 2.0 | 0.00 | 0.04 | 0.04 | 66 | 1020.7 |
| 20260831022556 | 63 | 206 | 1.0 | 2.0 | 0.00 | 0.04 | 0.04 | 66 | 1020.5 |
| 20260831021557 | 64 | 206 | 1.0 | 5.0 | 0.00 | 0.04 | 0.04 | 66 | 1020.5 |
| 20260831015552 | 64 | 229 | 3.0 | 8.0 | 0.00 | 0.04 | 0.04 | 65 | 1020.5 |
| 20260831014553 | 64 | 187 | 4.0 | 8.0 | 0.00 | 0.04 | 0.04 | 65 | 1020.7 |
| 20260831013551 | 64 | 217 | 3.0 | 6.0 | 0.00 | 0.04 | 0.04 | 64 | 1020.7 |
| 20260831011551 | 64 | 227 | 4.0 | 8.0 | 0.00 | 0.04 | 0.04 | 64 | 1020.8 |
| 20260831010550 | 65 | 215 | 6.0 | 11.0 | 0.00 | 0.04 | 0.04 | 63 | 1020.5 |
| 20260831005548 | 64 | 241 | 7.0 | 13.0 | 0.00 | 0.04 | 0.04 | 63 | 1020.5 |
| 20260831003547 | 63 | 280 | 5.0 | 12.0 | 0.01 | 0.04 | 0.04 | 63 | 1020.5 |
| 20260831002549 | 63 | 229 | 8.0 | 13.0 | 0.01 | 0.04 | 0.04 | 64 | 1020.7 |
| 20260831001548 | 62 | 222 | 6.0 | 13.0 | 0.01 | 0.04 | 0.04 | 66 | 1020.4 |
| 20260831000547 | 62 | 191 | 4.0 | 10.0 | 0.01 | 0.04 | 0.04 | 67 | 1020.1 |
| 20260830235547 | 63 | 213 | 7.0 | 14.0 | 0.02 | 0.04 | 0.04 | 67 | 1019.9 |
| 20260830234545 | 62 | 183 | 5.0 | 12.0 | 0.04 | 0.04 | 0.04 | 69 | 1020.3 |
| 20260830233546 | 63 | 254 | 6.0 | 12.0 | 0.03 | 0.03 | 0.03 | 69 | 1020.3 |
| 20260830232546 | 62 | 277 | 6.0 | 13.0 | 0.03 | 0.03 | 0.03 | 69 | 1020.1 |
| 20260830231541 | 63 | 190 | 9.0 | 20.0 | 0.03 | 0.03 | 0.03 | 69 | 1019.7 |
| 20260830230541 | 63 | 194 | 9.0 | 21.0 | 0.03 | 0.03 | 0.03 | 69 | 1020.2 |
| 20260830225541 | 64 | 272 | 11.0 | 16.0 | 0.02 | 0.02 | 0.02 | 68 | 1020.8 |
| 20260830224541 | 64 | 227 | 12.0 | 22.0 | 0.00 | 0.00 | 0.00 | 65 | 1020.4 |
| 20260830223541 | 66 | 281 | 2.0 | 12.0 | 0.00 | 0.00 | 0.00 | 59 | 1019.2 |
| 20260830221541 | 66 | 155 | 2.0 | 3.0 | 0.00 | 0.00 | 0.00 | 59 | 1018.2 |
| 20260830220542 | 66 | 155 | 3.0 | 6.0 | 0.00 | 0.00 | 0.00 | 60 | 1018.2 |
| 20260830215542 | 66 | 165 | 3.0 | 8.0 | 0.00 | 0.00 | 0.00 | 60 | 1018.0 |
| 20260830214544 | 66 | 152 | 3.0 | 7.0 | 0.00 | 0.00 | 0.00 | 59 | 1018.0 |
| 20260830213542 | 66 | 127 | 3.0 | 5.0 | 0.00 | 0.00 | 0.00 | 60 | 1018.1 |
| 20260830211542 | 67 | 141 | 3.0 | 5.0 | 0.00 | 0.00 | 0.00 | 59 | 1018.0 |
| 20260830210541 | 67 | 143 | 1.0 | 4.0 | 0.00 | 0.00 | 0.00 | 58 | 1018.2 |
| 20260830205541 | 67 | 144 | 1.0 | 3.0 | 0.00 | 0.00 | 0.00 | 59 | 1018.3 |
| 20260830203543 | 68 | 145 | 1.0 | 3.0 | 0.00 | 0.00 | 0.00 | 59 | 1018.2 |
| 20260830202536 | 68 | 145 | 1.0 | 3.0 | 0.00 | 0.00 | 0.00 | 59 | 1018.3 |
| 20260830201536 | 68 | 145 | 1.0 | 3.0 | 0.00 | 0.00 | 0.00 | 59 | 1018.3 |
| 20260830200536 | 68 | 145 | 3.0 | 4.0 | 0.00 | 0.00 | 0.00 | 60 | 1018.4 |
| 20260830195535 | 69 | 182 | 0.0 | 4.0 | 0.00 | 0.00 | 0.00 | 60 | 1018.3 |
| 20260830193537 | 69 | 233 | 0.0 | 0.0 | 0.00 | 0.00 | 0.00 | 57 | 1018.2 |
| 20260830192536 | 69 | 233 | 0.0 | 0.0 | 0.00 | 0.00 | 0.00 | 57 | 1018.3 |
| 20260830191535 | 70 | 233 | 0.0 | 0.0 | 0.00 | 0.00 | 0.00 | 57 | 1018.4 |
| 20260830190538 | 70 | 233 | 0.0 | 0.0 | 0.00 | 0.00 | 0.00 | 58 | 1018.3 |
| 20260830185533 | 70 | 233 | 0.0 | 0.0 | 0.00 | 0.00 | 0.00 | 58 | 1018.2 |
| 20260830183533 | 71 | 286 | 0.0 | 0.0 | 0.00 | 0.00 | 0.00 | 55 | 1018.2 |
| 20260830182533 | 71 | 286 | 0.0 | 0.0 | 0.00 | 0.00 | 0.00 | 55 | 1018.2 |
| 20260830180542 | 73 | 286 | 0.0 | 0.0 | 0.00 | 0.00 | 0.00 | 50 | 1018.1 |
| 20260830174533 | 74 | 286 | 0.0 | 0.0 | 0.00 | 0.00 | 0.00 | 48 | 1018.1 |
| 20260830173533 | 74 | 286 | 0.0 | 2.0 | 0.00 | 0.00 | 0.00 | 48 | 1018.1 |
| 20260830172535 | 75 | 286 | 0.0 | 0.0 | 0.00 | 0.00 | 0.00 | 50 | 1018.0 |
| 20260830171533 | 76 | 286 | 2.0 | 4.0 | 0.00 | 0.00 | 0.00 | 46 | 1018.1 |
| 20260830170534 | 76 | 286 | 3.0 | 4.0 | 0.00 | 0.00 | 0.00 | 45 | 1018.1 |
| 20260830165532 | 76 | 276 | 3.0 | 7.0 | 0.00 | 0.00 | 0.00 | 44 | 1018.1 |
| 20260830163533 | 77 | 300 | 7.0 | 11.0 | 0.00 | 0.00 | 0.00 | 43 | 1018.1 |
| 20260830162533 | 78 | 301 | 7.0 | 10.0 | 0.00 | 0.00 | 0.00 | 42 | 1018.2 |
| 20260830160533 | 79 | 321 | 8.0 | 12.0 | 0.00 | 0.00 | 0.00 | 41 | 1018.1 |
| 20260830155533 | 79 | 315 | 6.0 | 12.0 | 0.00 | 0.00 | 0.00 | 39 | 1018.1 |
| 20260830154533 | 80 | 282 | 6.0 | 11.0 | 0.00 | 0.00 | 0.00 | 37 | 1018.0 |
| 20260830153534 | 79 | 277 | 6.0 | 11.0 | 0.00 | 0.00 | 0.00 | 39 | 1018.1 |
| 20260830151534 | 79 | 254 | 10.0 | 15.0 | 0.00 | 0.00 | 0.00 | 34 | 1018.2 |
| 20260830150531 | 79 | 292 | 8.0 | 15.0 | 0.00 | 0.00 | 0.00 | 36 | 1018.3 |